Hourly Weather Roundup
Issued by NWS Central Illinois

Current Version | Previous Version | Text Only | Print | Product List | Glossary On
Versions: 1 2 3 4 5 6 7 8 9 10 11 12 13 14 15 16 17 18 19 20 21 22 23 24 25 26 27 28 29 30 31 32 33 34 35 36 37 38 39 40 41 42 43 44 45 46 47 48 49 50
000
NZUS43 KILX 110410
HWRILX

Area Weather Roundup
National Weather Service Lincoln IL
1000 PM CST SUN DEC 10 2017

NOTE:  "FAIR" indicates few or no clouds below 12,000 feet, with
       no sigificant weather and/or obstructions to visibility.


CITY           SKY/WX    TMP DP  RH WIND       PRES   REMARKS
Bloomington    CLOUDY    24  20  84 CALM      30.10F
Champaign      CLEAR     24  19  81 W5        30.11S WCI  18
Danville       CLEAR     25  19  80 NW5       30.07S WCI  19
Decatur        CLOUDY    28  22  78 N6        30.13R WCI  22
Effingham      CLEAR     31  26  80 CALM      30.15R
Flora          CLEAR     36  26  66 NW6       30.14R WCI  31
Galesburg      CLOUDY    23  22  94 CALM      30.12S
Jacksonville   CLOUDY    28  22  79 SW3       30.12S
Lacon          CLOUDY    23  20  87 CALM      30.11S
Lawrenceville  CLEAR     32  23  69 NW6       30.13R WCI  26
Litchfield     CLEAR     26  20  79 CALM      30.13R
$$


CITY           SKY/WX    TMP DP  RH WIND       PRES   REMARKS
Lincoln        CLOUDY    27  23  84 CALM      30.13S
Macomb         CLOUDY    23  19  87 NE3       30.13S
Mattoon        CLEAR     28  21  75 NW5       30.12R WCI  23
Mt Carmel AP   CLEAR     30  23  74 NW3       30.12S
Olney-Noble AP CLEAR     30  24  78 CALM      30.14R
Paris AP       CLEAR     26  22  83 NW3       30.12S
Peoria         CLEAR     26  20  77 CALM      30.12F
Pontiac        CLOUDY    24  21  89 CALM      30.11S
Rantoul        CLOUDY    27  22  80 NW3       30.10S
Robinson       CLEAR     32  24  73 NW7       30.14R WCI  26
Springfield    CLOUDY    29  21  72 CALM      30.13S
Taylorville    CLEAR     27  21  77 CALM      30.14R
$$

...REGIONAL REPORTS...


CITY           SKY/WX    TMP DP  RH WIND       PRES   REMARKS
Chicago O`Hare CLOUDY    29  19  66 N7        30.07S WCI  22
Kankakee       CLEAR     25  19  76 W3        30.10S
Moline         CLOUDY    23  18  81 CALM      30.09F
Mount Sterling CLOUDY    28  24  84 CALM      30.11S
Mount Vernon   CLEAR     25  23  92 CALM      30.14R
Pittsfield     CLEAR     26  21  79 CALM      30.13S
Quincy         CLOUDY    34  24  67 SW3       30.11S
Rockford       PTCLDY    24  18  77 NW3       30.10R
$$


CITY           SKY/WX    TMP DP  RH WIND       PRES   REMARKS
Burlington     CLOUDY    32  25  75 NE3       30.11R
Cedar Rapids   CLOUDY    28  22  78 CALM      30.07F
Des Moines     CLOUDY    36  25  64 CALM      30.06F
Kirksville     CLEAR     28  23  81 W5        30.11R WCI  23
Ottumwa        CLOUDY    32  25  75 E3        30.08F
St Louis       CLEAR     35  25  66 W3        30.14S
$$


CITY           SKY/WX    TMP DP  RH WIND       PRES   REMARKS
Terre Haute    CLEAR     30  21  69 NW5       30.12R WCI  25
Evansville     CLEAR     39  27  62 NW5       30.14R
Indianapolis   CLEAR     29  21  72 NW9       30.08R WCI  20
Lafayette      CLEAR     27  20  75 NW5       30.09R WCI  22
Madison        CLOUDY    26  18  71 CALM      30.05S
Milwaukee      CLOUDY    28  17  63 NW9       30.07R WCI  19
$$






USA.gov is the U.S. government's official web portal to all federal, state and local government web resources and services.